Location: Logan
(41.7360°N, 111.8340°W)
Time: 22:57:32
(UTC-07:00)

Daily predictions for brighter satellites

Satellite Brightness Start Highest point End
(mag) Time Altitude Azimuth Time Altitude Azimuth Time Altitude Azimuth
Cosmos 2346 Rocket 4.5 17:25:47 10° N 17:31:55 67° E 17:38:05 10° SSE
Centaur D AC-29 4.1 17:23:44 10° WSW 17:32:23 21° SSW 17:36:09 10° SSE
Cosmos 1340 4.0 17:30:20 10° SSW 17:33:55 43° WNW 17:37:34 10° N
Cosmos 1484 Rocket 3.0 17:30:24 10° SSE 17:34:08 47° ENE 17:37:56 10° N
Cosmos 1703 Rocket 4.2 17:30:14 10° SSE 17:34:17 35° E 17:38:20 10° NNE
Cosmos 972 Rocket 4.5 17:30:41 10° NNW 17:35:32 63° WSW 17:40:26 10° S
CSL-04 Rocket 3.6 17:33:06 10° SSE 17:38:22 73° ENE 17:43:43 10° N
ERS-2 3.3 17:40:04 10° ESE 17:42:56 22° ENE 17:45:47 10° NNE
Tsikada Rocket 4.3 17:37:11 10° NNW 17:43:20 73° W 17:49:28 10° S
Cosmos 1486 Rocket 4.0 17:38:14 10° SSW 17:43:26 79° ESE 17:48:42 10° NNE
BREEZE-M DEB (TANK) 3.3 17:42:43 10° NW 17:44:25 18° NNE 17:46:39 11° ENE
Cosmos 2082 Rocket 2.5 17:40:19 10° NNW 17:45:46 44° ENE 17:51:08 10° SE
IRAS Rocket 4.4 17:40:32 10° SSE 17:46:04 81° WSW 17:51:37 10° NNW
CZ-4 R/B 1.5 17:42:36 10° SE 17:46:17 45° ENE 17:49:58 10° N
COSMOS 2455 3.8 17:47:49 10° SW 17:53:34 46° NW 17:59:22 10° NNE
Cosmos 1633 2.9 17:50:05 10° N 17:53:37 44° E 17:57:07 10° SSE
Okean 2 Rocket 3.9 17:50:05 10° NNE 17:54:02 29° ENE 17:57:57 10° SE
CENTAUR R/B 3.8 17:48:25 10° WSW 17:54:04 35° NW 18:00:28 10° NNE
Cosmos 972 4.5 17:49:55 10° NNW 17:54:54 83° WSW 17:59:47 10° SSE
Meteor 1-20 Rocket 4.1 17:52:24 10° N 17:57:58 77° E 18:03:26 10° SSE
Cosmos 405 Rocket 3.7 17:54:52 10° SSE 17:57:58 24° E 18:00:28 13° NE
Centaur D AC-28 4.3 17:54:33 10° SSW 17:58:33 25° SSE 18:09:20 10° E
Cosmos 1908 Rocket 3.5 17:54:44 10° N 17:59:06 87° E 18:03:25 10° S
Cosmos 1354 Rocket 4.1 17:57:22 10° S 18:02:32 59° ESE 18:07:43 10° NNE
SKYMED 2 4.2 17:58:38 10° NNE 18:02:37 34° E 18:06:33 10° SSE
Meteor 1-25 Rocket 4.4 17:57:47 10° N 18:03:40 87° W 18:09:27 10° S
Cosmos 1782 2.8 18:00:05 10° S 18:04:03 63° E 18:08:02 10° NNE
CZ-2C R/B 3.6 18:02:48 10° NNE 18:07:18 72° ESE 18:11:52 10° S
SPOT 3 Rocket 3.9 18:09:10 10° SE 18:14:02 42° ENE 18:18:55 10° N
Cosmos 44 Rocket 3.4 18:09:22 10° NNW 18:14:08 52° NE 18:18:59 10° SE
Cosmos 1464 Rocket 4.0 18:08:44 10° S 18:14:44 60° E 18:20:47 10° NNE
Okean 1-7 2.9 18:13:42 10° S 18:18:04 75° E 18:22:29 10° NNE
Cosmos 292 Rocket 3.9 18:13:34 10° N 18:18:12 50° ENE 18:22:49 10° SE
FENGYUN 3A 4.0 18:15:12 10° SE 18:20:15 42° ENE 18:25:19 10° N
Sich 1 Rocket 4.2 18:21:31 10° NNW 18:25:52 58° W 18:30:15 10° S
MONITOR-E 4.1 18:24:54 10° SSE 18:27:53 57° ENE 18:30:53 10° N
Meteor 1-27 Rocket 3.9 18:25:35 10° S 18:31:17 53° E 18:37:04 10° NNE
MTI 3.8 18:29:09 15° N 18:31:44 82° WNW 18:34:57 10° SSW
Cosmos 44 3.1 18:28:37 10° NNW 18:33:20 84° ENE 18:38:18 10° SSE
Lacrosse 5 3.9 18:31:16 10° NNW 18:33:54 14° N 18:35:34 12° NNE
Cosmos 1833 Rocket 2.9 18:31:32 10° NNW 18:37:09 72° WSW 18:42:44 10° SSE
Cosmos 2369 Rocket 3.7 18:36:59 10° SSE 18:39:26 19° SE 18:39:26 19° SE
Cosmos 405 2.8 18:38:16 10° N 18:41:52 77° ENE 18:45:27 10° SSE
Meteor 1-10 Rocket 4.4 18:36:26 10° SSW 18:42:07 76° W 18:47:57 10° N
Cosmos 1782 Rocket 4.4 18:39:40 10° NNW 18:43:54 52° W 18:48:07 10° S
Thor Agena Rocket 4.4 18:45:30 29° ESE 18:45:30 29° ESE 18:49:08 10° SSE
NOAA 12 4.0 18:40:47 10° SSE 18:46:04 72° ENE 18:51:22 10° N
Tiangong 1 2.8 18:45:00 10° SW 18:46:16 20° SSW 18:46:16 20° SSW
Cosmos 2297 4.2 18:42:12 10° SW 18:47:51 62° WNW 18:53:12 12° NNE
ALOS 2.1 18:43:58 10° SSE 18:48:37 77° ENE 18:53:19 10° N
BREEZE-M R/B 4.0 18:46:03 10° WNW 18:48:49 36° SSW 18:53:25 10° SSE
YAOGAN 1 3.6 18:45:36 10° S 18:49:45 46° W 18:53:57 10° NNW
Cosmos 2278 Rocket 4.1 18:45:38 10° WSW 18:50:23 27° NW 18:55:10 10° N
Cosmos 540 Rocket 4.4 18:45:42 10° NNW 18:50:42 50° WSW 18:55:40 10° S
COSMO-SKYMED 1 2.8 18:46:26 10° N 18:50:46 70° WNW 18:55:04 10° SSW
COSMOS 2487 3.9 18:48:58 10° NNW 18:50:41 26° N 18:50:41 26° N
Cosmos 1441 Rocket 3.4 18:54:00 10° SSW 18:57:56 71° W 18:59:39 32° N
Cosmos 968 Rocket 3.3 18:53:22 10° SSW 18:58:31 78° ESE 19:00:45 35° NNE
USA 234 3.2 19:01:49 39° ENE 19:04:23 68° SE 19:10:53 10° SW
CZ-4C R/B 2.8 19:04:33 10° NW 19:11:49 87° ENE 19:18:12 18° SE
Meteor 1-11 Rocket 4.0 19:06:43 10° NNW 19:12:33 71° W 19:18:13 10° S
Cosmos 2151 Rocket 3.8 19:14:58 10° NNW 19:19:22 67° W 19:23:45 10° S
Nadezhda 4 Rocket 4.1 19:17:47 10° NNW 19:23:53 71° W 19:29:57 10° S
OAO 3 Rocket 4.3 19:22:30 10° WSW 19:26:33 36° S 19:26:33 36° S
Cosmos 1634 Rocket 4.1 19:21:53 10° S 19:26:52 56° SE 19:26:52 56° SE
Cosmos 2082 Rocket 4.2 19:24:55 10° NW 19:29:34 27° WSW 19:34:11 10° SSW
Gblst 52 Del rocket 4.4 19:33:46 10° SW 19:38:34 64° SSW 19:38:34 64° SSW
Cosmos 1092 Rocket 4.1 19:36:57 10° NNW 19:43:05 73° W 19:49:15 10° S
USA 229 DEB 3.7 19:50:56 10° SW 19:57:40 75° NW 19:57:42 75° NW
USA 229 3.7 19:51:02 10° SW 19:57:45 75° NW 19:57:45 75° NW
Cosmos 2369 Rocket 4.1 20:19:10 10° SW 20:21:18 23° SW 20:21:18 23° SW
